QFA184 YSNF-YBBN

Flight info

Callsign QFA184
Flight time N/A
Altitude 39000
Route DALOS G329 UGTUG
Aircraft A21N/M-SDE2E3FGHIRWXY/LB1

Departure

Time 2026-04-12 02:52
Airport Norfolk Island International Airport (YSNF)

Arrival

Time N/A
Airport Brisbane International Airport (YBBN)
Time Latitude Longitude Altitude Speed Heading
2026-04-12 02:45 -29.03606 167.94336 376 ft 0 kts 234°
2026-04-12 02:48 -29.03599 167.94347 376 ft 3 kts 234°
2026-04-12 02:48 -29.03590 167.94363 376 ft 1 kts 226°
2026-04-12 02:48 -29.03582 167.94371 376 ft 3 kts 225°
2026-04-12 02:49 -29.03573 167.94382 376 ft 0 kts 219°
2026-04-12 02:49 -29.03565 167.94388 376 ft 0 kts 196°
2026-04-12 02:49 -29.03565 167.94387 376 ft 0 kts 196°
2026-04-12 02:49 -29.03699 167.94360 377 ft 27 kts 189°
2026-04-12 02:50 -29.03791 167.94400 378 ft 11 kts 118°
2026-04-12 02:50 -29.03828 167.94434 379 ft 3 kts 207°
2026-04-12 02:50 -29.03835 167.94427 379 ft 0 kts 227°
2026-04-12 02:50 -29.03833 167.94430 379 ft 1 kts 228°
2026-04-12 02:51 -29.03827 167.94437 379 ft 2 kts 229°
2026-04-12 02:51 -29.03815 167.94453 379 ft 4 kts 229°
2026-04-12 02:51 -29.03802 167.94470 379 ft 2 kts 229°
2026-04-12 02:51 -29.03795 167.94479 379 ft 1 kts 229°
2026-04-12 02:52 -29.03793 167.94482 379 ft 0 kts 229°
2026-04-12 02:52 -29.03832 167.94431 379 ft 42 kts 229°
2026-04-12 02:52 -29.04265 167.93847 410 ft 143 kts 233°
2026-04-12 02:52 -29.04955 167.92760 985 ft 192 kts 245°
2026-04-12 02:53 -29.05379 167.91134 1712 ft 234 kts 265°
2026-04-12 02:53 -29.05221 167.89159 2648 ft 267 kts 286°
2026-04-12 02:53 -29.03314 167.85101 5045 ft 305 kts 291°
2026-04-12 02:54 -29.02682 167.82847 6867 ft 297 kts 282°
2026-04-12 02:54 -29.02360 167.80560 8816 ft 285 kts 277°
2026-04-12 02:54 -29.02214 167.78335 10656 ft 279 kts 273°
2026-04-12 02:54 -29.02170 167.76060 11865 ft 296 kts 271°
2026-04-12 02:55 -29.02185 167.73583 12530 ft 327 kts 270°
2026-04-12 02:55 -29.02233 167.70891 13086 ft 356 kts 270°
2026-04-12 02:55 -29.02291 167.67989 13898 ft 372 kts 270°
2026-04-12 02:55 -29.02343 167.65000 14877 ft 379 kts 270°
2026-04-12 02:56 -29.02385 167.61958 15973 ft 383 kts 270°
2026-04-12 02:56 -29.02418 167.58931 17066 ft 387 kts 271°
2026-04-12 02:56 -29.02444 167.55835 18074 ft 390 kts 271°
2026-04-12 02:56 -29.02466 167.52719 18851 ft 394 kts 271°
2026-04-12 02:57 -29.02427 167.49575 19532 ft 397 kts 273°
2026-04-12 02:57 -29.02284 167.46406 20221 ft 400 kts 275°
2026-04-12 02:57 -29.02083 167.43217 20883 ft 403 kts 275°
2026-04-12 02:57 -29.01859 167.40013 21520 ft 406 kts 275°
2026-04-12 02:58 -29.01632 167.36808 22131 ft 408 kts 275°
2026-04-12 02:58 -29.01408 167.33563 22709 ft 411 kts 275°
2026-04-12 02:58 -29.01190 167.30294 23251 ft 414 kts 275°
2026-04-12 02:58 -29.00975 167.26995 23718 ft 416 kts 275°
2026-04-12 02:59 -29.00767 167.23732 24162 ft 418 kts 275°
2026-04-12 02:59 -29.00557 167.20417 24635 ft 419 kts 275°
2026-04-12 02:59 -29.00346 167.17086 25124 ft 419 kts 275°
2026-04-12 02:59 -29.00134 167.13758 25610 ft 420 kts 275°
2026-04-12 03:00 -28.99921 167.10417 26106 ft 421 kts 275°
2026-04-12 03:00 -28.99707 167.07097 26844 ft 416 kts 274°
2026-04-12 03:00 -28.99496 167.03821 27663 ft 410 kts 274°
2026-04-12 03:00 -28.99289 167.00635 28394 ft 404 kts 274°
2026-04-12 03:01 -28.99081 166.97443 29049 ft 400 kts 274°
2026-04-12 03:01 -28.98874 166.94285 29665 ft 397 kts 274°
2026-04-12 03:01 -28.98667 166.91143 30242 ft 394 kts 274°
2026-04-12 03:01 -28.98462 166.88036 30735 ft 392 kts 274°
2026-04-12 03:02 -28.98257 166.84936 31218 ft 390 kts 274°
2026-04-12 03:02 -28.98052 166.81851 31696 ft 388 kts 274°
2026-04-12 03:02 -28.97850 166.78815 32174 ft 386 kts 274°
2026-04-12 03:02 -28.97646 166.75764 32665 ft 384 kts 274°
2026-04-12 03:03 -28.97442 166.72730 33151 ft 381 kts 273°
2026-04-12 03:03 -28.97239 166.69712 33632 ft 379 kts 273°
2026-04-12 03:03 -28.97036 166.66708 34060 ft 377 kts 273°
2026-04-12 03:03 -28.96837 166.63761 34428 ft 376 kts 273°
2026-04-12 03:04 -28.96635 166.60794 34797 ft 375 kts 273°
2026-04-12 03:04 -28.96432 166.57824 35166 ft 373 kts 273°
2026-04-12 03:04 -28.96231 166.54877 35535 ft 371 kts 273°
2026-04-12 03:04 -28.96029 166.51942 35892 ft 370 kts 273°
2026-04-12 03:05 -28.95827 166.49010 36262 ft 368 kts 273°
2026-04-12 03:05 -28.95627 166.46106 36648 ft 366 kts 273°
2026-04-12 03:05 -28.95429 166.43251 37004 ft 364 kts 273°
2026-04-12 03:05 -28.95228 166.40365 37339 ft 363 kts 273°
2026-04-12 03:06 -28.95028 166.37494 37671 ft 362 kts 273°
2026-04-12 03:06 -28.94828 166.34637 38004 ft 360 kts 273°
2026-04-12 03:06 -28.94628 166.31786 38348 ft 359 kts 273°
2026-04-12 03:06 -28.94428 166.28938 38668 ft 358 kts 273°
2026-04-12 03:07 -28.94228 166.26103 38853 ft 359 kts 273°
2026-04-12 03:07 -28.94029 166.23279 38894 ft 365 kts 273°
2026-04-12 03:07 -28.93614 166.17411 38892 ft 376 kts 273°
2026-04-12 03:08 -28.93190 166.11508 38899 ft 364 kts 273°
2026-04-12 03:08 -28.92777 166.05791 38896 ft 363 kts 273°
2026-04-12 03:09 -28.92361 166.00049 38895 ft 362 kts 273°
2026-04-12 03:09 -28.91944 165.94314 38889 ft 362 kts 273°
2026-04-12 03:10 -28.91524 165.88571 38892 ft 362 kts 273°
2026-04-12 03:10 -28.91103 165.82864 38891 ft 362 kts 273°
2026-04-12 03:11 -28.90678 165.77119 38886 ft 362 kts 274°
2026-04-12 03:11 -28.90253 165.71385 38886 ft 362 kts 274°
2026-04-12 03:12 -28.89828 165.65697 38890 ft 362 kts 274°
2026-04-12 03:12 -28.89399 165.59978 38893 ft 362 kts 274°
2026-04-12 03:13 -28.88967 165.54244 38890 ft 362 kts 274°
2026-04-12 03:13 -28.88534 165.48549 38887 ft 362 kts 274°
2026-04-12 03:14 -28.88097 165.42823 38889 ft 362 kts 274°
2026-04-12 03:14 -28.87661 165.37135 38887 ft 362 kts 274°
2026-04-12 03:15 -28.87218 165.31399 38886 ft 362 kts 274°
2026-04-12 03:15 -28.86777 165.25714 38887 ft 362 kts 274°
2026-04-12 03:16 -28.86330 165.19983 38887 ft 362 kts 274°
2026-04-12 03:16 -28.85880 165.14258 38892 ft 362 kts 274°
2026-04-12 03:17 -28.85432 165.08579 38889 ft 361 kts 274°
2026-04-12 03:17 -28.84979 165.02866 38885 ft 360 kts 274°
2026-04-12 03:18 -28.84525 164.97169 38886 ft 360 kts 274°
2026-04-12 03:18 -28.84071 164.91511 38884 ft 359 kts 274°
2026-04-12 03:19 -28.83615 164.85845 38887 ft 359 kts 274°
2026-04-12 03:19 -28.83153 164.80153 38886 ft 359 kts 274°
2026-04-12 03:20 -28.82693 164.74500 38884 ft 359 kts 274°
2026-04-12 03:20 -28.82227 164.68811 38886 ft 359 kts 274°
2026-04-12 03:21 -28.81760 164.63139 38884 ft 359 kts 274°
2026-04-12 03:21 -28.81295 164.57516 38881 ft 358 kts 274°
2026-04-12 03:22 -28.80824 164.51845 38885 ft 358 kts 274°
2026-04-12 03:22 -28.80350 164.46182 38888 ft 358 kts 274°
2026-04-12 03:23 -28.79877 164.40546 38888 ft 358 kts 274°
2026-04-12 03:23 -28.79398 164.34873 38883 ft 358 kts 274°
2026-04-12 03:24 -28.78920 164.29242 38878 ft 358 kts 274°
2026-04-12 03:24 -28.78439 164.23595 38881 ft 358 kts 274°
2026-04-12 03:25 -28.77955 164.17948 38882 ft 358 kts 274°
2026-04-12 03:25 -28.77468 164.12291 38880 ft 358 kts 274°
2026-04-12 03:26 -28.76981 164.06674 38879 ft 358 kts 274°
2026-04-12 03:26 -28.76490 164.01020 38880 ft 358 kts 274°
2026-04-12 03:27 -28.76000 163.95410 38877 ft 357 kts 275°
2026-04-12 03:27 -28.75588 163.90727 38883 ft 356 kts 275°
2026-04-12 03:28 -28.75093 163.85105 38880 ft 356 kts 275°
2026-04-12 03:28 -28.74594 163.79476 38879 ft 356 kts 275°
2026-04-12 03:29 -28.74097 163.73891 38877 ft 356 kts 275°
2026-04-12 03:29 -28.73594 163.68262 38876 ft 356 kts 275°
2026-04-12 03:30 -28.73090 163.62650 38877 ft 356 kts 275°
2026-04-12 03:30 -28.72582 163.57032 38878 ft 356 kts 275°
2026-04-12 03:31 -28.72076 163.51445 38876 ft 356 kts 275°
2026-04-12 03:31 -28.71564 163.45826 38875 ft 356 kts 275°
2026-04-12 03:32 -28.71052 163.40232 38881 ft 356 kts 275°
2026-04-12 03:32 -28.70534 163.34606 38877 ft 356 kts 275°
2026-04-12 03:33 -28.70015 163.28981 38886 ft 356 kts 275°
2026-04-12 03:33 -28.69497 163.23399 38884 ft 355 kts 275°
2026-04-12 03:34 -28.68974 163.17796 38871 ft 355 kts 275°
2026-04-12 03:34 -28.68450 163.12200 38878 ft 355 kts 275°
2026-04-12 03:35 -28.67927 163.06636 38882 ft 355 kts 275°
2026-04-12 03:35 -28.67398 163.01035 38874 ft 355 kts 275°
2026-04-12 03:36 -28.66865 162.95431 38874 ft 355 kts 275°
2026-04-12 03:36 -28.66331 162.89842 38876 ft 354 kts 275°
2026-04-12 03:37 -28.65800 162.84300 38872 ft 354 kts 275°
2026-04-12 03:37 -28.65262 162.78719 38868 ft 354 kts 275°
2026-04-12 03:38 -28.64722 162.73143 38877 ft 354 kts 276°
2026-04-12 03:38 -28.64180 162.67572 38872 ft 354 kts 276°
2026-04-12 03:39 -28.63638 162.62016 38874 ft 354 kts 276°
2026-04-12 03:39 -28.63092 162.56440 38880 ft 354 kts 276°
2026-04-12 03:40 -28.62546 162.50898 38869 ft 354 kts 276°
2026-04-12 03:40 -28.61994 162.45315 38878 ft 354 kts 276°
2026-04-12 03:41 -28.61441 162.39749 38871 ft 354 kts 276°
2026-04-12 03:41 -28.60885 162.34173 38875 ft 354 kts 276°
2026-04-12 03:42 -28.60331 162.28634 38871 ft 354 kts 276°
2026-04-12 03:42 -28.59770 162.23056 38875 ft 353 kts 276°
2026-04-12 03:43 -28.59212 162.17532 38871 ft 353 kts 276°
2026-04-12 03:43 -28.58648 162.11968 38875 ft 353 kts 276°
2026-04-12 03:44 -28.58083 162.06415 38875 ft 353 kts 276°
2026-04-12 03:44 -28.57520 162.00909 38870 ft 353 kts 276°
2026-04-12 03:45 -28.56950 161.95355 38874 ft 353 kts 276°
2026-04-12 03:45 -28.56378 161.89810 38872 ft 353 kts 276°
2026-04-12 03:46 -28.55804 161.84264 38870 ft 353 kts 276°
2026-04-12 03:46 -28.55233 161.78760 38875 ft 353 kts 276°
2026-04-12 03:47 -28.54653 161.73209 38874 ft 353 kts 276°
2026-04-12 03:47 -28.54073 161.67664 38873 ft 353 kts 276°
2026-04-12 03:48 -28.53490 161.62123 38871 ft 353 kts 276°
2026-04-12 03:48 -28.52905 161.56576 38872 ft 353 kts 276°
2026-04-12 03:49 -28.52320 161.51061 38866 ft 352 kts 276°
2026-04-12 03:49 -28.51734 161.45550 38872 ft 352 kts 276°
2026-04-12 03:50 -28.51143 161.40018 38872 ft 352 kts 276°
2026-04-12 03:50 -28.50550 161.34483 38867 ft 352 kts 276°
2026-04-12 03:51 -28.49954 161.28947 38866 ft 352 kts 276°
2026-04-12 03:51 -28.49360 161.23448 38866 ft 352 kts 276°
2026-04-12 03:52 -28.48761 161.17927 38869 ft 352 kts 277°
2026-04-12 03:52 -28.48160 161.12416 38866 ft 350 kts 277°
2026-04-12 03:53 -28.47560 161.06925 38864 ft 349 kts 277°
2026-04-12 03:53 -28.46959 161.01444 38860 ft 349 kts 277°
2026-04-12 03:54 -28.46359 160.96000 38862 ft 349 kts 277°
2026-04-12 03:54 -28.45754 160.90526 38863 ft 349 kts 277°
2026-04-12 03:55 -28.45146 160.85047 38862 ft 349 kts 277°
2026-04-12 03:55 -28.44541 160.79608 38861 ft 348 kts 277°
2026-04-12 03:56 -28.43930 160.74146 38859 ft 348 kts 277°
2026-04-12 03:56 -28.43316 160.68673 38859 ft 348 kts 277°
2026-04-12 03:57 -28.42704 160.63236 38859 ft 348 kts 277°
2026-04-12 03:57 -28.42086 160.57771 38856 ft 348 kts 277°
2026-04-12 03:58 -28.41466 160.52305 38855 ft 348 kts 277°
2026-04-12 03:58 -28.40849 160.46883 38856 ft 348 kts 277°
2026-04-12 03:59 -28.40226 160.41429 38858 ft 348 kts 277°
2026-04-12 03:59 -28.39600 160.35966 38856 ft 348 kts 277°
2026-04-12 04:00 -28.38972 160.30513 38857 ft 348 kts 277°
2026-04-12 04:00 -28.38346 160.25090 38855 ft 348 kts 277°
2026-04-12 04:01 -28.37714 160.19637 38853 ft 348 kts 277°
2026-04-12 04:01 -28.37082 160.14202 38851 ft 348 kts 277°
2026-04-12 04:02 -28.36127 160.06031 38848 ft 348 kts 277°
2026-04-12 04:03 -28.35488 160.00585 38852 ft 348 kts 277°
2026-04-12 04:03 -28.34847 159.95141 38848 ft 348 kts 277°
2026-04-12 04:04 -28.34208 159.89730 38848 ft 348 kts 277°
2026-04-12 04:04 -28.33562 159.84282 38846 ft 348 kts 277°
2026-04-12 04:05 -28.32918 159.78866 38842 ft 347 kts 278°
2026-04-12 04:05 -28.32267 159.73418 38842 ft 347 kts 278°
2026-04-12 04:06 -28.31616 159.67982 38844 ft 347 kts 278°
2026-04-12 04:06 -28.30966 159.62576 38842 ft 347 kts 278°
2026-04-12 04:07 -28.30309 159.57130 38842 ft 347 kts 278°
2026-04-12 04:07 -28.29651 159.51691 38840 ft 347 kts 278°
2026-04-12 04:08 -28.28996 159.46294 38842 ft 347 kts 278°
2026-04-12 04:08 -28.28334 159.40860 38841 ft 347 kts 278°
2026-04-12 04:09 -28.27670 159.35430 38837 ft 347 kts 278°
2026-04-12 04:09 -28.27007 159.30030 38837 ft 347 kts 278°
2026-04-12 04:10 -28.26339 159.24603 38837 ft 347 kts 278°
2026-04-12 04:10 -28.25673 159.19207 38834 ft 347 kts 278°
2026-04-12 04:11 -28.24999 159.13777 38837 ft 347 kts 278°
2026-04-12 04:11 -28.24322 159.08345 38837 ft 347 kts 278°
2026-04-12 04:12 -28.23647 159.02952 38837 ft 347 kts 278°
2026-04-12 04:12 -28.22963 158.97504 38840 ft 347 kts 278°
2026-04-12 04:13 -28.22283 158.92110 38837 ft 347 kts 278°
2026-04-12 04:13 -28.21596 158.86673 38839 ft 347 kts 278°
2026-04-12 04:14 -28.20910 158.81262 38837 ft 347 kts 278°
2026-04-12 04:14 -28.20220 158.75833 38837 ft 347 kts 278°
2026-04-12 04:15 -28.19527 158.70401 38834 ft 347 kts 278°
2026-04-12 04:15 -28.18836 158.65007 38834 ft 347 kts 278°
2026-04-12 04:16 -28.18139 158.59578 38831 ft 347 kts 278°
2026-04-12 04:16 -28.17443 158.54179 38831 ft 347 kts 278°